When you browse on this site, cookies collect data to enhance your experience and personalize the content and advertising you see.
Visit our Privacy Policy to learn more. By continuing to use the site, you agree to this use of cookies and data.
  • In Spain
  • List of Countries
  • For 7 days
  • Water Temperature
  • Satellite Maps
  • Weather Map
  • Weather Widgets
  • user-avatar
    Login

    Hourly Weather San Miguel de Tucumán

    Today, 12 December, Wednesday

    Time Temperature Precipitation Wind Pressure Humidity
    00:00 +30°C° 0.2 mm 2 mps 715 mmHg 66%
    01:00 +30°C° 0.2 mm 2 mps 715 mmHg 65%
    02:00 +29°C° 0 mm 2 mps 716 mmHg 66%
    03:00 +28°C° 2.7 mm 2 mps 716 mmHg 71%
    04:00 +27°C° 2.7 mm 2 mps 716 mmHg 76%
    05:00 +27°C° 2.7 mm 3 mps 717 mmHg 82%
    06:00 +27°C° 0.7 mm 3 mps 717 mmHg 82%
    07:00 +28°C° 0.7 mm 3 mps 718 mmHg 82%
    08:00 +28°C° 0 mm 3 mps 719 mmHg 86%
    09:00 +28°C° 0.3 mm 3 mps 719 mmHg 85%
    10:00 +29°C° 0.3 mm 3 mps 719 mmHg 84%
    11:00 +29°C° 0.3 mm 3 mps 719 mmHg 83%
    12:00 +30°C° 0.2 mm 2 mps 718 mmHg 79%
    13:00 +31°C° 0.2 mm 2 mps 718 mmHg 76%
    14:00 +32°C° 0.2 mm 2 mps 718 mmHg 72%
    15:00 +32°C° 1.3 mm 2 mps 717 mmHg 72%
    16:00 +32°C° 1.3 mm 1 mps 717 mmHg 71%
    17:00 +32°C° 1.3 mm 1 mps 716 mmHg 71%
    18:00 +30°C° 0.5 mm 1 mps 716 mmHg 76%
    19:00 +29°C° 0.5 mm 1 mps 716 mmHg 82%
    20:00 +28°C° 0.5 mm 1 mps 717 mmHg 87%
    21:00 +27°C° 0 mm 1 mps 717 mmHg 87%
    22:00 +27°C° 0 mm 1 mps 717 mmHg 87%
    23:00 +27°C° 0 mm 1 mps 717 mmHg 88%

    Tomorrow, 13 December, Thursday

    Time Temperature Precipitation Wind Pressure Humidity
    00:00 +27°C° 0 mm 1 mps 716 mmHg 87%
    01:00 +26°C° 0 mm 1 mps 716 mmHg 86%
    02:00 +26°C° 0 mm 1 mps 715 mmHg 86%
    03:00 +26°C° 0 mm 1 mps 715 mmHg 85%
    04:00 +26°C° 0 mm 1 mps 715 mmHg 85%
    05:00 +26°C° 0 mm 1 mps 714 mmHg 84%
    06:00 +28°C° 0 mm 1 mps 714 mmHg 77%
    07:00 +29°C° 0 mm 1 mps 714 mmHg 71%
    08:00 +31°C° 0 mm 2 mps 715 mmHg 64%
    09:00 +34°C° 0 mm 2 mps 714 mmHg 58%
    10:00 +36°C° 0 mm 3 mps 714 mmHg 51%
    11:00 +38°C° 0 mm 4 mps 714 mmHg 45%
    12:00 +40°C° 0 mm 4 mps 713 mmHg 42%
    13:00 +41°C° 0 mm 4 mps 712 mmHg 40%
    14:00 +42°C° 0 mm 4 mps 711 mmHg 37%
    15:00 +42°C° 0 mm 4 mps 711 mmHg 39%
    16:00 +42°C° 0 mm 4 mps 710 mmHg 41%
    17:00 +40°C° 0 mm 3 mps 709 mmHg 43%
    18:00 +38°C° 0.1 mm 3 mps 710 mmHg 48%
    19:00 +36°C° 0.1 mm 3 mps 710 mmHg 52%
    20:00 +35°C° 0.1 mm 3 mps 711 mmHg 56%
    21:00 +34°C° 0 mm 3 mps 711 mmHg 55%
    22:00 +34°C° 0 mm 3 mps 711 mmHg 53%
    23:00 +33°C° 0 mm 3 mps 711 mmHg 52%

    Day after tomorrow, 14 December, Friday

    Time Temperature Precipitation Wind Pressure Humidity
    00:00 +33°C° 0 mm 3 mps 711 mmHg 49%
    01:00 +31°C° 0 mm 3 mps 710 mmHg 47%
    02:00 +30°C° 0 mm 2 mps 710 mmHg 45%
    03:00 +30°C° 0 mm 2 mps 710 mmHg 44%
    04:00 +29°C° 0 mm 2 mps 710 mmHg 43%
    05:00 +29°C° 0 mm 2 mps 710 mmHg 42%
    06:00 +30°C° 0 mm 2 mps 711 mmHg 45%
    07:00 +33°C° 0 mm 3 mps 712 mmHg 48%
    08:00 +34°C° 0 mm 3 mps 713 mmHg 51%
    09:00 +36°C° 0 mm 4 mps 714 mmHg 48%
    10:00 +37°C° 0 mm 4 mps 714 mmHg 45%
    11:00 +39°C° 0 mm 5 mps 715 mmHg 43%
    12:00 +39°C° 1.6 mm 5 mps 715 mmHg 46%
    13:00 +39°C° 1.6 mm 5 mps 714 mmHg 49%
    14:00 +37°C° 1.6 mm 4 mps 714 mmHg 52%
    15:00 +36°C° 4.3 mm 4 mps 714 mmHg 58%
    16:00 +34°C° 4.3 mm 4 mps 714 mmHg 65%
    17:00 +33°C° 4.3 mm 4 mps 714 mmHg 71%
    18:00 +31°C° 3.4 mm 3 mps 715 mmHg 75%
    19:00 +29°C° 3.4 mm 3 mps 716 mmHg 79%
    20:00 +28°C° 3.4 mm 2 mps 717 mmHg 84%
    21:00 +28°C° 1.2 mm 2 mps 718 mmHg 85%
    22:00 +27°C° 1.2 mm 2 mps 719 mmHg 87%
    23:00 +26°C° 1.2 mm 2 mps 720 mmHg 88%

    15 December, Saturday

    Time Temperature Precipitation Wind Pressure Humidity
    00:00 +26°C° 0.7 mm 2 mps 720 mmHg 89%
    01:00 +25°C° 0.7 mm 2 mps 720 mmHg 90%
    02:00 +25°C° 0.7 mm 3 mps 720 mmHg 91%
    03:00 +24°C° 0.4 mm 3 mps 720 mmHg 90%
    04:00 +22°C° 0.4 mm 3 mps 720 mmHg 89%
    05:00 +21°C° 0.4 mm 3 mps 721 mmHg 88%
    06:00 +22°C° 0.1 mm 3 mps 721 mmHg 86%
    07:00 +22°C° 0.1 mm 3 mps 722 mmHg 83%
    08:00 +23°C° 0.1 mm 2 mps 722 mmHg 80%
    09:00 +24°C° 0.1 mm 2 mps 722 mmHg 76%
    10:00 +25°C° 0.1 mm 2 mps 722 mmHg 72%
    11:00 +26°C° 0.1 mm 2 mps 722 mmHg 69%
    12:00 +27°C° 0 mm 2 mps 721 mmHg 68%
    13:00 +27°C° 0 mm 2 mps 721 mmHg 68%
    14:00 +28°C° 0 mm 2 mps 720 mmHg 67%
    15:00 +28°C° 0 mm 2 mps 719 mmHg 67%
    16:00 +28°C° 0 mm 2 mps 719 mmHg 67%
    17:00 +28°C° 0 mm 2 mps 718 mmHg 67%
    18:00 +27°C° 0 mm 2 mps 718 mmHg 72%
    19:00 +26°C° 0 mm 1 mps 719 mmHg 78%
    20:00 +25°C° 0 mm 1 mps 719 mmHg 84%
    21:00 +25°C° 0 mm 1 mps 719 mmHg 84%
    22:00 +25°C° 0 mm 1 mps 719 mmHg 84%
    23:00 +24°C° 0 mm 1 mps 720 mmHg 84%

    16 December, Sunday

    Time Temperature Precipitation Wind Pressure Humidity
    00:00 +24°C° 0.1 mm 1 mps 719 mmHg 85%
    01:00 +24°C° 0.1 mm 1 mps 718 mmHg 86%
    02:00 +24°C° 0.1 mm 1 mps 718 mmHg 87%
    03:00 +24°C° 0 mm 1 mps 718 mmHg 88%
    04:00 +21°C° 0 mm 0 mps 718 mmHg 89%
    05:00 +21°C° 0 mm 0 mps 718 mmHg 90%
    06:00 +24°C° 0 mm 1 mps 718 mmHg 86%
    07:00 +25°C° 0 mm 1 mps 719 mmHg 82%
    08:00 +26°C° 0 mm 1 mps 719 mmHg 79%
    09:00 +28°C° 0.1 mm 1 mps 719 mmHg 73%
    10:00 +30°C° 0.1 mm 1 mps 719 mmHg 67%
    11:00 +32°C° 0.1 mm 2 mps 719 mmHg 61%
    12:00 +32°C° 0 mm 2 mps 718 mmHg 61%
    13:00 +32°C° 0 mm 2 mps 717 mmHg 62%
    14:00 +34°C° 0 mm 3 mps 716 mmHg 62%
    15:00 +33°C° 0.5 mm 3 mps 716 mmHg 64%
    16:00 +32°C° 0.5 mm 2 mps 715 mmHg 67%
    17:00 +32°C° 0.5 mm 2 mps 715 mmHg 69%
    18:00 +30°C° 1.4 mm 2 mps 715 mmHg 74%
    19:00 +29°C° 1.4 mm 1 mps 716 mmHg 80%
    20:00 +28°C° 1.4 mm 1 mps 716 mmHg 85%
    21:00 +27°C° 1.3 mm 1 mps 717 mmHg 85%
    22:00 +27°C° 1.3 mm 1 mps 717 mmHg 85%
    23:00 +27°C° 1.3 mm 1 mps 718 mmHg 84%

    17 December, Monday

    Time Temperature Precipitation Wind Pressure Humidity
    00:00 +26°C° 0.4 mm 1 mps 717 mmHg 83%
    01:00 +26°C° 0.4 mm 1 mps 717 mmHg 82%
    02:00 +26°C° 0.4 mm 1 mps 716 mmHg 80%
    03:00 +25°C° 0.1 mm 1 mps 716 mmHg 79%
    04:00 +25°C° 0.1 mm 1 mps 716 mmHg 78%
    05:00 +25°C° 0.1 mm 1 mps 716 mmHg 76%
    06:00 +27°C° 0.1 mm 1 mps 717 mmHg 72%
    07:00 +29°C° 0.1 mm 1 mps 718 mmHg 67%
    08:00 +30°C° 0.1 mm 1 mps 718 mmHg 62%
    09:00 +32°C° 0.4 mm 1 mps 718 mmHg 58%
    10:00 +34°C° 0.4 mm 2 mps 718 mmHg 54%
    11:00 +35°C° 0.4 mm 2 mps 719 mmHg 50%
    12:00 +36°C° 0.4 mm 2 mps 718 mmHg 49%
    13:00 +36°C° 0.4 mm 2 mps 718 mmHg 48%
    14:00 +37°C° 0.4 mm 2 mps 718 mmHg 46%
    15:00 +36°C° 0.9 mm 2 mps 717 mmHg 51%
    16:00 +34°C° 0.9 mm 1 mps 717 mmHg 56%
    17:00 +33°C° 0.9 mm 1 mps 717 mmHg 61%
    18:00 +31°C° 3.3 mm 2 mps 718 mmHg 69%
    19:00 +29°C° 3.3 mm 2 mps 718 mmHg 76%
    20:00 +27°C° 3.3 mm 2 mps 719 mmHg 84%
    21:00 +27°C° 3.6 mm 2 mps 719 mmHg 85%
    22:00 +26°C° 3.6 mm 2 mps 720 mmHg 85%
    23:00 +26°C° 3.6 mm 1 mps 720 mmHg 86%
    Show more